Location: Poughquag
(41.6090°N, 73.6820°W)
Time: 02:32:22
(UTC-04:00)

Vanguard 2 Rocket - Pass Details

Date: 30 May 2020
Orbit: 556 x 3324 km, 32.9° (Epoch: 06 July)

Event Time Altitude Azimuth Distance (km) Brightness Sun altitude
Rises 18:49:44 0° 265° (W) 4,691 11.9 14.9°
Reaches altitude 10° 18:52:23 10° 261° (W) 4,007 11.6 14.4°
Maximum altitude 19:03:33 57° 187° (S) 2,785 9.5 12.4°
Drops below altitude 10° 19:21:26 10° 116° (ESE) 6,150 10.5 9.2°
Sets 19:26:41 0° 113° (ESE) 7,287 10.8 8.3°
